Weather History for DeKalb, IL

Change the Weather History Date:

Wednesday, May 7, 2014

  Actual Average (KARR) Record (KARR)
Temperature  
Mean Temperature 65 °F 56 °F  
Max Temperature 80 °F 68 °F 85 °F (2007)
Min Temperature 50 °F 44 °F 37 °F (2006)
Degree Days  
Heating Degree Days 0 10  
Month to date heating degree days 74  
Since 1 July heating degree days 6580  
Cooling Degree Days 0 1  
Month to date cooling degree days 1  
Year to date cooling degree days 4  
Growing Degree Days 15 (Base 50)    
Moisture  
Dew Point 46 °F    
Average Humidity 60    
Maximum Humidity 88    
Minimum Humidity 48    
Precipitation  
Precipitation 0.02 in 0.13 in 0.99 in (2010)
Month to date precipitation 0.92  
Year to date precipitation 9.54  
Sea Level Pressure  
Sea Level Pressure 29.81 in    
Wind  
Wind Speed 13 mph (ESE)    
Max Wind Speed 18 mph    
Max Gust Speed 23 mph    
Visibility 10 miles    
Events Rain , Thunderstorm    
T = Trace of Precipitation, MM = Missing Value Source: NWS Daily Summary

Daily Weather History Graph

Daily Weather History Graph

Search for Another Location

Airport:

Trip Planner

Search our weather history database for the weather conditions in past years. The results will help you decide how hot, cold, wet, or windy it might be!

Date:

Astronomy

May. 07, 2014 Rise Set
Actual Time 5:43 AM CDT 8:00 PM CDT
Civil Twilight 5:12 AM CDT 8:31 PM CDT
Nautical Twilight 4:34 AM CDT 9:09 PM CDT
Astronomical Twilight 3:51 AM CDT 9:52 PM CDT
Moon 12:58 PM CDT (5/7) 1:49 AM CDT (5/7)
Length of Visible Light 15h 18m
Length of Day
14h 16m
First Quarter, 55% of the Moon is Illuminated
May 7
First Quarter
May 14
Full
May 21
Last Quarter
May 28
New
Jun 5
First Quarter

Hourly Weather History & Observations

Time (CDT) Temp. Heat Index Dew Point Humidity Pressure Visibility Wind Dir Wind Speed Gust Speed Precip Events Conditions
12:15 AM 54.5 °F - 37.8 °F 53% 29.84 in 10.0 mi East 17.3 mph - N/A   Scattered Clouds
12:35 AM 54.9 °F - 37.6 °F 52% 29.84 in 10.0 mi East 17.3 mph - N/A   Mostly Cloudy
12:55 AM 54.9 °F - 37.4 °F 52% 29.85 in 10.0 mi East 16.1 mph - N/A   Scattered Clouds
1:15 AM 54.7 °F - 37.0 °F 51% 29.84 in 10.0 mi East 15.0 mph - N/A   Scattered Clouds
1:35 AM 54.9 °F - 36.9 °F 51% 29.83 in 10.0 mi ESE 13.8 mph - N/A   Clear
1:55 AM 54.3 °F - 36.5 °F 51% 29.82 in 10.0 mi ESE 17.3 mph - N/A   Clear
2:15 AM 54.0 °F - 36.7 °F 52% 29.83 in 10.0 mi ESE 13.8 mph - N/A   Clear
2:35 AM 54.1 °F - 36.9 °F 52% 29.81 in 10.0 mi ESE 16.1 mph - N/A   Clear
2:55 AM 54.5 °F - 37.0 °F 52% 29.81 in 10.0 mi ESE 13.8 mph - N/A   Scattered Clouds
3:15 AM 54.5 °F - 37.0 °F 52% 29.80 in 10.0 mi SE 15.0 mph - N/A   Scattered Clouds
3:35 AM 55.4 °F - 36.7 °F 49% 29.80 in 10.0 mi ESE 17.3 mph 20.7 mph N/A   Scattered Clouds
3:55 AM 54.7 °F - 36.1 °F 50% 29.80 in 10.0 mi ESE 15.0 mph - N/A   Clear
4:15 AM 53.6 °F - 36.5 °F 52% 29.80 in 10.0 mi ESE 11.5 mph - N/A   Scattered Clouds
4:35 AM 53.1 °F - 36.7 °F 54% 29.79 in 10.0 mi ESE 11.5 mph - N/A   Scattered Clouds
4:55 AM 53.1 °F - 36.7 °F 54% 29.79 in 10.0 mi ESE 12.7 mph - N/A   Clear
5:15 AM 52.2 °F - 36.9 °F 56% 29.80 in 10.0 mi East 12.7 mph - N/A   Clear
5:35 AM 52.2 °F - 36.9 °F 56% 29.79 in 10.0 mi East 13.8 mph - N/A   Clear
5:55 AM 51.8 °F - 37.4 °F 58% 29.80 in 10.0 mi East 13.8 mph - N/A   Clear
6:15 AM 52.7 °F - 37.8 °F 57% 29.81 in 10.0 mi East 12.7 mph - N/A   Clear
6:35 AM 52.0 °F - 37.6 °F 58% 29.82 in 10.0 mi ENE 10.4 mph - N/A   Clear
6:55 AM 51.1 °F - 37.8 °F 60% 29.82 in 10.0 mi East 12.7 mph - N/A   Clear
7:15 AM 51.1 °F - 38.3 °F 62% 29.83 in 10.0 mi East 10.4 mph - N/A   Clear
7:35 AM 51.3 °F - 38.5 °F 62% 29.84 in 10.0 mi East 9.2 mph - N/A   Clear
7:55 AM 53.1 °F - 39.7 °F 61% 29.84 in 10.0 mi East 8.1 mph - N/A   Clear
8:15 AM 53.6 °F - 39.6 °F 59% 29.84 in 10.0 mi East 13.8 mph - N/A   Clear
8:35 AM 54.9 °F - 40.3 °F 58% 29.84 in 10.0 mi East 12.7 mph - N/A   Clear
8:55 AM 57.6 °F - 41.5 °F 55% 29.83 in 10.0 mi ESE 15.0 mph - N/A   Clear
9:15 AM 57.4 °F - 42.1 °F 57% 29.83 in 10.0 mi ESE 13.8 mph - N/A   Clear
9:35 AM 58.5 °F - 43.0 °F 56% 29.84 in 10.0 mi East 12.7 mph - N/A   Clear
9:55 AM 59.2 °F - 43.5 °F 56% 29.85 in 10.0 mi East 10.4 mph - N/A   Clear
10:15 AM 59.9 °F - 44.1 °F 56% 29.84 in 10.0 mi East 9.2 mph - N/A   Clear
10:35 AM 60.8 °F - 45.1 °F 56% 29.85 in 10.0 mi ESE 8.1 mph - N/A   Scattered Clouds
10:55 AM 63.3 °F - 46.4 °F 54% 29.82 in 10.0 mi ESE 12.7 mph - N/A   Clear
11:15 AM 67.3 °F - 49.3 °F 52% 29.80 in 10.0 mi SE 12.7 mph - N/A   Clear
11:35 AM 67.1 °F - 49.5 °F 53% 29.78 in 10.0 mi ESE 16.1 mph 19.6 mph N/A   Clear
11:55 AM 66.7 °F - 49.8 °F 54% 29.79 in 10.0 mi SE 10.4 mph 17.3 mph N/A   Clear
12:15 PM 68.7 °F - 51.6 °F 54% 29.81 in 10.0 mi SE 16.1 mph - N/A   Scattered Clouds
12:35 PM 68.0 °F - 52.0 °F 56% 29.84 in 10.0 mi SE 11.5 mph 18.4 mph N/A   Scattered Clouds
12:55 PM 68.7 °F - 52.7 °F 57% 29.81 in 10.0 mi ESE 12.7 mph - N/A   Scattered Clouds
1:15 PM 70.3 °F - 53.6 °F 55% 29.80 in 10.0 mi ESE 18.4 mph 23.0 mph N/A   Clear
1:35 PM 71.8 °F - 54.9 °F 55% 29.79 in 10.0 mi SE 18.4 mph - N/A   Clear
1:55 PM 73.4 °F - 55.9 °F 54% 29.81 in 10.0 mi ESE 8.1 mph 20.7 mph N/A   Clear
2:15 PM 77.2 °F - 57.2 °F 50% 29.82 in 10.0 mi SE 11.5 mph 18.4 mph N/A   Clear
2:35 PM 79.5 °F - 58.1 °F 48% 29.82 in 10.0 mi SSE 11.5 mph - N/A Thunderstorm Scattered Clouds
2:55 PM 78.1 °F - 58.1 °F 50% 29.81 in 10.0 mi SE 8.1 mph - N/A   Overcast
3:15 PM 80.1 °F 80.7 °F 58.5 °F 48% 29.79 in 10.0 mi East 10.4 mph - N/A   Scattered Clouds
3:35 PM 78.4 °F - 57.6 °F 49% 29.81 in 10.0 mi East 10.4 mph - N/A Thunderstorm Scattered Clouds
3:55 PM 77.2 °F - 57.4 °F 50% 29.79 in 10.0 mi East 11.5 mph - N/A   Scattered Clouds
4:15 PM 76.5 °F - 57.4 °F 52% 29.79 in 10.0 mi ESE 9.2 mph - N/A   Scattered Clouds
4:35 PM 72.0 °F - 60.4 °F 67% 29.78 in 7.0 mi SE 13.8 mph - 0.02 in Rain , Thunderstorm Light Thunderstorms and Rain
4:55 PM 73.8 °F - 62.1 °F 67% 29.77 in 10.0 mi East 9.2 mph - 0.02 in Thunderstorm Scattered Clouds
5:15 PM 76.1 °F - 62.4 °F 62% 29.75 in 10.0 mi East 11.5 mph - N/A   Clear
5:35 PM 73.4 °F - 61.2 °F 65% 29.76 in 10.0 mi ESE 10.4 mph - N/A   Clear
5:55 PM 77.9 °F - 60.6 °F 55% 29.77 in 10.0 mi ESE 11.5 mph - N/A   Clear
6:15 PM 75.9 °F - 60.1 °F 58% 29.77 in 10.0 mi East 9.2 mph - N/A   Clear
6:35 PM 64.9 °F - 52.2 °F 63% 29.79 in 10.0 mi ENE 15.0 mph - N/A   Clear
6:55 PM 61.3 °F - 48.0 °F 62% 29.79 in 10.0 mi ENE 15.0 mph 19.6 mph N/A   Clear
7:15 PM 59.4 °F - 47.8 °F 66% 29.78 in 10.0 mi ENE 13.8 mph - N/A   Clear
7:35 PM 58.3 °F - 47.5 °F 67% 29.77 in 10.0 mi ENE 15.0 mph - N/A   Clear
7:55 PM 56.7 °F - 47.7 °F 72% 29.78 in 10.0 mi ENE 8.1 mph - N/A   Clear
8:15 PM 55.0 °F - 47.3 °F 75% 29.78 in 10.0 mi ENE 8.1 mph - N/A   Clear
8:35 PM 54.1 °F - 46.9 °F 77% 29.79 in 10.0 mi East 9.2 mph - N/A   Clear
8:55 PM 53.2 °F - 46.9 °F 79% 29.79 in 10.0 mi East 6.9 mph - N/A   Clear
9:15 PM 52.7 °F - 46.8 °F 80% 29.79 in 10.0 mi East 6.9 mph - N/A   Clear
9:35 PM 51.8 °F - 46.4 °F 82% 29.79 in 10.0 mi East 5.8 mph - N/A   Clear
9:55 PM 51.3 °F - 46.4 °F 83% 29.79 in 10.0 mi East 8.1 mph - N/A   Clear
10:15 PM 50.5 °F - 46.4 °F 86% 29.80 in 10.0 mi East 5.8 mph - N/A   Clear
10:35 PM 50.4 °F - 45.9 °F 85% 29.80 in 10.0 mi East 5.8 mph - N/A   Clear
10:55 PM 50.2 °F - 46.0 °F 86% 29.80 in 7.0 mi ESE 4.6 mph - N/A   Clear
11:15 PM 51.3 °F - 46.6 °F 84% 29.79 in 10.0 mi SE 5.8 mph - N/A   Clear
11:35 PM 53.6 °F - 50.0 °F 88% 29.79 in 10.0 mi SSE 5.8 mph - N/A   Clear
11:55 PM 56.3 °F - 52.3 °F 87% 29.79 in 10.0 mi South 10.4 mph - N/A   Clear